Regional Weather Roundup
Issued by NWS

Home | Current Version | Previous Version | Graphics & Text | Print | Product List | Glossary On
Versions: 1 2 3 4 5 6 7 8 9 10 11 12 13 14 15 16 17 18 19 20 21 22 23 24 25 26 27 28 29 30 31 32 33 34 35 36 37 38 39 40 41 42 43 44 45 46 47 48 49 50
919
ASUS45 KSLC 280810
RWRUT

UTAH REGIONAL WEATHER ROUNDUP
NATIONAL WEATHER SERVICE SALT LAKE CITY UT
200 AM MDT SUN MAY 28 2017

UTZ001>011-023>025-280900-

NORTHERN UTAH

CITY           SKY/WX    TMP DP  RH WIND       PRES   REMARKS
BRIGHAM CITY   CLEAR     52  39  62 CALM      30.23S
HILL AFB       CLEAR     54  34  46 E15       30.24S
LOGAN          CLEAR     50  42  74 W3        30.26S
OGDEN          CLEAR     53  35  50 SW5       30.23R
SALT LAKE CITY CLEAR     58  42  55 CALM      30.22S
TOOELE VALLEY  CLEAR     41  36  81 S8        30.23F
WENDOVER       NOT AVBL
HEBER CITY     CLEAR     37  34  87 E5        30.28S WCI  34
WEST JORDAN    CLEAR     53  43  67 CALM      30.24S

$$

UTZ011>015-024>027-280900-

CENTRAL/NORTHEAST UTAH

CITY           SKY/WX    TMP DP  RH WIND       PRES   REMARKS
PROVO AIRPORT  CLEAR     48  41  76 CALM      30.25R
MOAB/CANYONLAN CLEAR     60  26  27 SE8       30.18R
DELTA          CLEAR     46  30  53 NE7       30.23S
PRICE          CLEAR     50  25  37 N8        30.25S
ROOSEVELT      CLEAR     43  34  70 W3        30.28S
VERNAL         PTCLDY    45  31  58 W3        30.27R

$$

UTZ013>016-019>022-027-280900-

SOUTHERN UTAH

CITY           SKY/WX    TMP DP  RH WIND       PRES   REMARKS
BRYCE CANYON   CLEAR     34  23  64 NW3       30.33S
CEDAR CITY     CLEAR     42  27  55 CALM      30.23S
MILFORD        CLEAR     45  23  42 NE7       30.23S
ST GEORGE      SUNNY     71  26  18 NE10      30.07R
HANKSVILLE     CLEAR     57  21  24 N6        30.21R
BLANDING       CLEAR     53  25  33 NE13      30.30R

$$

REGIONAL REPORTS     COLORADO/ARIZONA

CITY           SKY/WX    TMP DP  RH WIND       PRES   REMARKS
CRAIG, CO      CLEAR     34  31  88 CALM      30.33R
GRAND JUNCTION CLEAR     55  28  35 E12       30.24R
RIFLE, CO      CLEAR     42  29  59 CALM      30.30S
MONTROSE, CO   CLEAR     44  30  57 SE8       30.30R
CORTEZ, CO     CLEAR     40  30  67 NE8       30.23S WCI  34
COLORADO CITY    N/A     54  27  35 CALM      30.19R
PAGE, AZ       CLEAR     65  27  23 W3        30.10R
GRAND CANYON   CLEAR     37  25  61 CALM      30.24S
KINGMAN, AZ    CLEAR     60  19  20 MISG      30.05S
FLAGSTAFF, AZ  CLEAR     41  24  51 CALM      30.24F

$$

REGIONAL REPORTS    NEVADA/IDAHO/WYOMING

CITY           SKY/WX    TMP DP  RH WIND       PRES   REMARKS
LAS VEGAS, NV  CLEAR     81  20  10 NE10      29.97R
ELY, NY        CLEAR     36  21  54 S9        30.30S WCI  29
ELKO, NV       CLEAR     51  34  52 CALM      30.23S
POCATELLO, ID  CLEAR     42  40  92 N6        30.26S
BURLEY, ID     CLEAR     46  39  76 CALM      30.23R
FORT BRIDGER,    N/A     45  30  57 W7        30.37S
EVANSTON, WY   CLEAR     44  30  57 S5        30.35S
ROCK SPRINGS,  CLOUDY    45  28  51 SE7       30.33R
KEMMERER, WY     N/A     37  30  75 N10       30.36S WCI  30

$$




USA.gov is the U.S. government's official web portal to all federal, state and local government web resources and services.